DW6376 Weather Reports


Display with metric or nautical units.
time (UTC)temp
F
wind
direction
speed
MPH
gust
MPH
rain 1hr
in
rain 24hr
in
rain mn
in
humidity
%
barometer
mb
20260507074530 45 350 0.0 0.0 0.00 0.00 0.00 53 1022.4
20260507073021 45 350 0.0 0.0 0.00 0.00 0.00 54 1022.5
20260507071519 45 350 0.0 0.0 0.00 0.00 0.00 52 1022.6
20260507070018 46 350 0.0 0.0 0.00 0.00 0.01 51 1022.6
20260507064516 46 350 0.0 0.0 0.00 0.00 0.01 51 1022.6
20260507063017 46 350 0.0 0.0 0.00 0.00 0.01 53 1022.6
20260507061521 46 350 0.0 0.0 0.00 0.00 0.01 50 1022.5
20260507060015 46 350 0.0 0.0 0.00 0.00 0.01 53 1022.5
20260507054503 46 350 0.0 0.0 0.00 0.00 0.00 53 1022.5
20260507053001 46 350 0.0 0.0 0.00 0.00 0.00 51 1022.4
20260507051502 47 350 0.0 0.0 0.00 0.00 0.00 50 1022.3
20260507050000 47 350 0.0 0.0 0.00 0.00 0.00 46 1022.3
20260507044602 48 350 0.0 0.0 0.00 0.00 0.00 48 1022.3
20260507043059 49 350 0.0 0.0 0.00 0.00 0.00 47 1022.1
20260507041603 49 350 0.0 0.0 0.00 0.00 0.00 46 1022.1
20260507040107 50 350 0.0 0.0 0.00 0.00 0.00 44 1022.0
20260507034544 51 350 0.0 0.0 0.00 0.00 0.00 43 1022.1
20260507033056 52 350 0.0 0.0 0.00 0.00 0.00 41 1021.7
20260507031524 52 350 0.0 0.0 0.00 0.00 0.00 38 1021.5
20260507030024 54 350 0.0 0.0 0.00 0.00 0.00 37 1021.4
20260507024522 55 350 0.0 0.0 0.00 0.00 0.00 32 1021.2
20260507023022 56 350 0.0 0.0 0.00 0.00 0.00 31 1021.1
20260507021521 57 350 0.0 0.0 0.00 0.00 0.00 30 1020.9
20260507020022 58 23 1.0 0.0 0.00 0.00 0.00 28 1020.9
20260507014524 59 24 1.0 0.0 0.00 0.00 0.00 28 1021.1
20260507013020 60 26 1.0 0.0 0.00 0.00 0.00 26 1021.1
20260507011508 60 24 1.0 0.0 0.00 0.00 0.00 25 1021.2
20260507010025 61 24 1.0 0.0 0.00 0.00 0.00 25 1021.1
20260507004507 61 23 0.0 0.0 0.00 0.00 0.00 27 1021.2
20260507003007 61 30 2.0 0.0 0.00 0.00 0.00 26 1021.0
20260507001507 61 13 1.0 0.0 0.00 0.00 0.00 25 1021.0
20260507000007 61 42 2.0 0.0 0.00 0.00 0.00 25 1020.9
20260506234508 61 36 3.0 0.0 0.00 0.00 0.00 26 1020.7
20260506233006 61 15 2.0 0.0 0.00 0.00 0.00 27 1020.7
20260506231555 62 257 2.0 0.0 0.00 0.00 0.00 27 1020.7
20260506230053 61 231 2.0 0.0 0.00 0.00 0.00 28 1020.7
20260506224606 62 25 2.0 0.0 0.00 0.00 0.00 26 1020.7
20260506223058 61 207 3.0 0.0 0.00 0.00 0.00 27 1020.9
20260506221551 61 223 1.0 0.0 0.00 0.00 0.00 27 1020.9
20260506214550 60 19 2.0 0.0 0.00 0.00 0.00 28 1021.2
20260506213048 60 53 2.0 0.0 0.00 0.00 0.00 28 1021.2
20260506211534 60 98 2.0 0.0 0.00 0.00 0.00 29 1021.1
20260506210032 59 26 3.0 0.0 0.00 0.00 0.00 27 1021.0
20260506204535 59 355 3.0 0.0 0.00 0.00 0.00 28 1021.1
20260506203028 58 24 4.0 0.0 0.00 0.00 0.00 26 1021.2
20260506201526 58 286 4.0 0.0 0.00 0.00 0.00 27 1021.1
20260506200024 57 355 3.0 0.0 0.00 0.00 0.00 26 1021.1
20260506194531 56 46 3.0 0.0 0.00 0.00 0.00 27 1021.0
20260506193019 56 32 3.0 0.0 0.00 0.00 0.00 29 1020.9
20260506191505 55 49 3.0 0.0 0.00 0.00 0.00 28 1021.0
20260506190005 55 211 3.0 0.0 0.00 0.00 0.00 29 1021.0
20260506184502 54 35 3.0 0.0 0.00 0.00 0.00 30 1021.0
20260506183103 54 39 2.0 0.0 0.00 0.00 0.00 33 1021.0
20260506181624 53 104 3.0 0.0 0.00 0.00 0.00 32 1020.8
20260506180055 53 24 2.0 0.0 0.00 0.00 0.00 36 1020.7
20260506174552 52 39 3.0 0.0 0.00 0.00 0.00 35 1020.6
20260506173120 52 307 3.0 0.0 0.00 0.00 0.00 34 1020.5
20260506171554 51 36 4.0 0.0 0.00 0.00 0.00 36 1020.3
20260506170033 50 47 3.0 0.0 0.00 0.00 0.00 43 1020.1
20260506164531 50 23 4.0 0.0 0.00 0.00 0.00 42 1019.7
20260506163028 49 51 3.0 0.0 0.00 0.00 0.00 46 1019.5
20260506161526 48 282 3.0 0.0 0.00 0.00 0.00 47 1019.4
20260506160035 48 5 3.0 0.0 0.00 0.00 0.00 49 1019.2
20260506154524 48 42 3.0 0.0 0.00 0.00 0.00 51 1019.1
20260506153020 47 13 2.0 0.0 0.00 0.00 0.00 52 1018.9
20260506151519 46 328 1.0 0.0 0.00 0.00 0.00 57 1018.6
20260506150104 45 5 1.0 0.0 0.00 0.00 0.00 60 1018.4
20260506144557 43 312 0.0 0.0 0.00 0.00 0.00 81 1018.5
20260506143045 42 313 1.0 0.0 0.00 0.00 0.00 81 1018.5
20260506141544 41 36 0.0 0.0 0.00 0.00 0.00 90 1018.3
20260506140044 40 36 0.0 0.0 0.00 0.00 0.00 89 1018.4
20260506134543 39 36 0.0 0.0 0.00 0.00 0.00 88 1018.3
20260506133039 39 36 0.0 0.0 0.00 0.00 0.00 86 1018.1
20260506131547 39 36 0.0 0.0 0.00 0.00 0.00 85 1017.7
20260506130039 39 36 0.0 0.0 0.00 0.00 0.00 83 1017.3
20260506124533 40 36 0.0 0.0 0.00 0.00 0.00 80 1017.0
20260506123017 41 23 0.0 0.0 0.00 0.00 0.00 84 1016.8
20260506121515 41 23 0.0 0.0 0.00 0.00 0.00 82 1016.5
20260506120017 42 18 0.0 0.0 0.00 0.00 0.00 85 1016.3
20260506114516 43 18 0.0 0.0 0.00 0.00 0.00 89 1016.0
20260506113011 43 19 0.0 0.0 0.00 0.00 0.00 89 1016.3
20260506111509 43 18 0.0 0.0 0.00 0.00 0.00 89 1016.1
20260506110007 42 19 0.0 0.0 0.00 0.00 0.00 88 1015.6
20260506104504 42 50 0.0 0.0 0.00 0.00 0.00 85 1015.3
20260506103050 43 30 1.0 0.0 0.00 0.00 0.00 85 1015.0
20260506101547 44 5 0.0 0.0 0.00 0.00 0.00 85 1014.8
20260506100043 45 351 0.0 0.0 0.00 0.00 0.00 85 1014.4
20260506094551 46 338 0.0 0.0 0.00 0.00 0.00 86 1013.8
20260506093040 46 338 0.0 0.0 0.00 0.00 0.00 86 1013.7
20260506091537 46 355 0.0 0.0 0.00 0.00 0.00 84 1013.4
20260506090033 47 229 0.0 0.0 0.00 0.00 0.00 84 1013.7
20260506084531 47 229 0.0 0.0 0.00 0.00 0.00 80 1012.7
20260506083017 47 228 0.0 0.0 0.00 0.00 0.00 81 1012.3
20260506081515 47 228 0.0 0.0 0.00 0.00 0.00 81 1012.1